Time,TemperatureF,DewpointF,PressureIn,WindDirection,WindDirectionDegrees,WindSpeedMPH,WindSpeedGustMPH,Humidity,HourlyPrecipIn,Conditions,Clouds,dailyrainin,SoftwareType,DateUTC
2013-04-25 05:22:00,34.0,30.0,29.98,West,274,1.0,7.0,85,0.00,,,0.22,,2013-04-25 10:22:00,
2013-04-25 05:33:00,34.0,30.0,29.99,WNW,284,1.0,5.0,85,0.00,,,0.22,,2013-04-25 10:33:00,
2013-04-25 05:42:00,34.0,30.0,29.99,WNW,284,1.0,5.0,85,0.00,,,0.22,,2013-04-25 10:42:00,
2013-04-25 05:53:00,33.0,29.0,30.00,WNW,287,0.0,4.0,85,0.00,,,0.22,,2013-04-25 10:53:00,
2013-04-25 06:02:00,33.0,29.0,30.00,West,278,0.0,2.0,85,0.00,,,0.22,,2013-04-25 11:02:00,
2013-04-25 06:12:00,33.0,29.0,30.00,West,278,0.0,2.0,85,0.00,,,0.22,,2013-04-25 11:12:00,
2013-04-25 06:22:00,32.0,28.0,30.01,NW,308,0.0,10.0,85,0.00,,,0.22,,2013-04-25 11:22:00,
2013-04-25 06:32:00,33.0,29.0,30.01,West,272,1.0,6.0,86,0.00,,,0.22,,2013-04-25 11:32:00,
2013-04-25 06:42:00,33.0,29.0,30.01,West,272,1.0,6.0,86,0.00,,,0.22,,2013-04-25 11:42:00,
2013-04-25 06:52:00,33.0,29.0,30.02,West,276,0.0,4.0,86,0.00,,,0.22,,2013-04-25 11:52:00,
2013-04-25 07:01:00,33.0,29.0,30.02,NNW,342,0.0,5.0,86,0.00,,,0.22,,2013-04-25 12:01:00,
2013-04-25 07:12:00,33.0,29.0,30.02,NNW,342,0.0,5.0,86,0.00,,,0.22,,2013-04-25 12:12:00,
2013-04-25 07:21:00,33.0,29.0,30.03,NNW,334,0.0,3.0,86,0.00,,,0.22,,2013-04-25 12:21:00,
2013-04-25 07:32:00,34.0,30.0,30.04,WNW,298,0.0,15.0,85,0.00,,,0.22,,2013-04-25 12:32:00,
2013-04-25 07:42:00,34.0,30.0,30.04,WNW,298,0.0,15.0,85,0.00,,,0.22,,2013-04-25 12:42:00,
2013-04-25 07:52:00,34.0,30.0,30.05,NNW,331,0.0,3.0,85,0.00,,,0.22,,2013-04-25 12:52:00,
2013-04-25 08:02:00,35.0,31.0,30.05,WNW,294,0.0,3.0,85,0.00,,,0.22,,2013-04-25 13:02:00,
2013-04-25 08:11:00,35.0,31.0,30.05,WNW,294,0.0,3.0,85,0.00,,,0.22,,2013-04-25 13:11:00,
2013-04-25 08:21:00,35.0,30.0,30.07,West,279,3.0,8.0,83,0.00,,,0.22,,2013-04-25 13:21:00,
2013-04-25 08:31:00,36.0,31.0,30.08,West,280,1.0,5.0,83,0.00,,,0.22,,2013-04-25 13:31:00,
2013-04-25 08:42:00,36.0,31.0,30.08,West,280,1.0,5.0,83,0.00,,,0.22,,2013-04-25 13:42:00,
2013-04-25 08:52:00,36.0,31.0,30.08,WSW,257,1.0,5.0,83,0.00,,,0.22,,2013-04-25 13:52:00,
2013-04-25 09:01:00,37.0,32.0,30.09,WNW,296,3.0,7.0,81,0.00,,,0.22,,2013-04-25 14:01:00,
2013-04-25 09:11:00,37.0,32.0,30.09,WNW,296,3.0,7.0,81,0.00,,,0.22,,2013-04-25 14:11:00,
2013-04-25 09:21:00,38.0,32.0,30.10,WNW,302,2.0,6.0,80,0.00,,,0.22,,2013-04-25 14:21:00,
2013-04-25 09:32:00,39.0,33.0,30.10,West,281,2.0,8.0,79,0.00,,,0.22,,2013-04-25 14:32:00,
2013-04-25 09:42:00,39.0,33.0,30.10,West,281,2.0,8.0,79,0.00,,,0.22,,2013-04-25 14:42:00,
2013-04-25 09:52:00,39.0,33.0,30.10,WNW,293,2.0,8.0,79,0.00,,,0.22,,2013-04-25 14:52:00,
2013-04-25 10:02:00,40.0,33.0,30.12,WNW,297,3.0,8.0,76,0.00,,,0.22,,2013-04-25 15:02:00,
2013-04-25 10:11:00,40.0,33.0,30.12,WNW,297,3.0,8.0,76,0.00,,,0.22,,2013-04-25 15:11:00,
2013-04-25 10:21:00,40.0,33.0,30.12,WNW,295,2.0,8.0,75,0.00,,,0.22,,2013-04-25 15:21:00,
2013-04-25 10:33:00,41.0,33.0,30.12,West,278,3.0,10.0,74,0.00,,,0.22,,2013-04-25 15:33:00,
2013-04-25 10:42:00,41.0,33.0,30.12,West,278,3.0,10.0,74,0.00,,,0.22,,2013-04-25 15:42:00,
2013-04-25 10:53:00,42.0,34.0,30.13,NW,305,2.0,6.0,72,0.00,,,0.22,,2013-04-25 15:53:00,
2013-04-25 11:02:00,42.0,33.0,30.14,NW,319,2.0,10.0,71,0.00,,,0.22,,2013-04-25 16:02:00,
2013-04-25 11:13:00,42.0,33.0,30.14,NW,319,2.0,10.0,71,0.00,,,0.22,,2013-04-25 16:13:00,
2013-04-25 11:24:00,42.0,33.0,30.15,WNW,285,3.0,7.0,70,0.00,,,0.22,,2013-04-25 16:24:00,
2013-04-25 11:32:00,42.0,33.0,30.15,West,269,3.0,8.0,70,0.00,,,0.22,,2013-04-25 16:32:00,
2013-04-25 11:42:00,42.0,33.0,30.15,West,269,3.0,8.0,70,0.00,,,0.22,,2013-04-25 16:42:00,
2013-04-25 11:52:00,43.0,34.0,30.15,West,276,3.0,10.0,69,0.00,,,0.22,,2013-04-25 16:52:00,
2013-04-25 12:02:00,43.0,33.0,30.16,West,272,3.0,10.0,67,0.00,,,0.22,,2013-04-25 17:02:00,
2013-04-25 12:11:00,43.0,33.0,30.16,West,272,3.0,10.0,67,0.00,,,0.22,,2013-04-25 17:11:00,
2013-04-25 12:22:00,45.0,34.0,30.16,WNW,296,1.0,5.0,66,0.00,,,0.22,,2013-04-25 17:22:00,
2013-04-25 12:32:00,45.0,34.0,30.16,WNW,291,3.0,7.0,64,0.00,,,0.22,,2013-04-25 17:32:00,
2013-04-25 12:42:00,45.0,34.0,30.16,WNW,291,3.0,7.0,64,0.00,,,0.22,,2013-04-25 17:42:00,
2013-04-25 12:53:00,46.0,34.0,30.16,West,266,3.0,8.0,63,0.00,,,0.22,,2013-04-25 17:53:00,
2013-04-25 13:01:00,46.0,33.0,30.17,NW,311,4.0,10.0,60,0.00,,,0.22,,2013-04-25 18:01:00,
2013-04-25 13:11:00,46.0,33.0,30.17,NW,311,4.0,10.0,60,0.00,,,0.22,,2013-04-25 18:11:00,
2013-04-25 13:21:00,46.0,32.0,30.17,WNW,291,4.0,7.0,59,0.00,,,0.22,,2013-04-25 18:21:00,
2013-04-25 13:32:00,47.0,33.0,30.17,West,279,4.0,8.0,58,0.00,,,0.22,,2013-04-25 18:32:00,
2013-04-25 13:42:00,47.0,33.0,30.17,West,279,4.0,8.0,58,0.00,,,0.22,,2013-04-25 18:42:00,
2013-04-25 13:53:00,47.0,33.0,30.18,West,267,4.0,10.0,57,0.00,,,0.22,,2013-04-25 18:53:00,
2013-04-25 14:01:00,48.0,33.0,30.17,WNW,285,3.0,8.0,56,0.00,,,0.22,,2013-04-25 19:01:00,
2013-04-25 14:12:00,48.0,33.0,30.17,WNW,285,3.0,8.0,56,0.00,,,0.22,,2013-04-25 19:12:00,
2013-04-25 14:21:00,48.0,33.0,30.18,West,278,3.0,9.0,55,0.00,,,0.22,,2013-04-25 19:21:00,
2013-04-25 14:31:00,49.0,33.0,30.17,WNW,300,2.0,7.0,53,0.00,,,0.22,,2013-04-25 19:31:00,
2013-04-25 14:41:00,49.0,33.0,30.17,WNW,300,2.0,7.0,53,0.00,,,0.22,,2013-04-25 19:41:00,
2013-04-25 14:52:00,49.0,32.0,30.18,NW,312,4.0,9.0,52,0.00,,,0.22,,2013-04-25 19:52:00,
2013-04-25 15:02:00,49.0,32.0,30.18,West,268,3.0,7.0,52,1.24,,,1.46,,2013-04-25 20:02:00,
2013-04-25 15:11:00,49.0,32.0,30.18,West,268,3.0,7.0,52,1.24,,,1.46,,2013-04-25 20:11:00,
2013-04-25 15:22:00,48.0,31.0,30.18,West,277,3.0,8.0,51,1.24,,,1.46,,2013-04-25 20:22:00,
2013-04-25 15:32:00,48.0,31.0,30.18,West,270,2.0,7.0,51,1.24,,,1.46,,2013-04-25 20:32:00,
2013-04-25 15:42:00,48.0,31.0,30.18,West,270,2.0,7.0,51,1.24,,,1.46,,2013-04-25 20:42:00,
2013-04-25 15:52:00,48.0,31.0,30.18,West,273,3.0,11.0,51,0.06,,,1.52,,2013-04-25 20:52:00,
2013-04-25 16:01:00,49.0,32.0,30.18,West,264,3.0,10.0,51,0.06,,,1.52,,2013-04-25 21:01:00,
2013-04-25 16:11:00,49.0,32.0,30.18,West,264,3.0,10.0,51,0.06,,,1.52,,2013-04-25 21:11:00,
2013-04-25 16:21:00,49.0,32.0,30.18,NW,316,2.0,6.0,51,0.06,,,1.52,,2013-04-25 21:21:00,
2013-04-25 16:33:00,49.0,32.0,30.18,West,277,1.0,8.0,51,0.06,,,1.52,,2013-04-25 21:33:00,
2013-04-25 16:42:00,49.0,32.0,30.18,West,277,1.0,8.0,51,0.06,,,1.52,,2013-04-25 21:42:00,
2013-04-25 16:53:00,49.0,31.0,30.18,WSW,255,2.0,8.0,50,0.06,,,1.52,,2013-04-25 21:53:00,
2013-04-25 17:02:00,50.0,32.0,30.18,WSW,241,2.0,10.0,49,0.00,,,1.38,,2013-04-25 22:02:00,
2013-04-25 17:12:00,50.0,32.0,30.18,WSW,241,2.0,10.0,49,0.00,,,1.38,,2013-04-25 22:12:00,
2013-04-25 17:22:00,50.0,32.0,30.18,NW,312,1.0,5.0,49,0.00,,,1.38,,2013-04-25 22:22:00,
2013-04-25 17:33:00,51.0,31.0,30.18,SW,217,3.0,7.0,47,0.00,,,1.38,,2013-04-25 22:33:00,
2013-04-25 17:42:00,51.0,31.0,30.18,SW,217,3.0,7.0,47,0.00,,,1.38,,2013-04-25 22:42:00,
2013-04-25 17:53:00,51.0,31.0,30.18,SW,224,3.0,7.0,47,0.00,,,1.38,,2013-04-25 22:53:00,
2013-04-25 18:02:00,51.0,31.0,30.18,SW,232,2.0,6.0,46,0.00,,,1.38,,2013-04-25 23:02:00,
2013-04-25 18:12:00,51.0,31.0,30.18,SW,232,2.0,6.0,46,0.00,,,1.38,,2013-04-25 23:12:00,
2013-04-25 18:22:00,51.0,30.0,30.18,WSW,239,2.0,8.0,45,0.00,,,1.38,,2013-04-25 23:22:00,
2013-04-25 18:32:00,50.0,30.0,30.18,West,261,2.0,6.0,46,0.00,,,1.38,,2013-04-25 23:32:00,
2013-04-25 18:42:00,50.0,30.0,30.18,West,261,2.0,6.0,46,0.00,,,1.38,,2013-04-25 23:42:00,
2013-04-25 18:52:00,50.0,30.0,30.18,WSW,240,2.0,6.0,46,0.00,,,1.38,,2013-04-25 23:52:00,
2013-04-25 19:01:00,50.0,30.0,30.18,SSW,197,2.0,5.0,46,0.00,,,1.38,,2013-04-26 00:01:00,
2013-04-25 19:11:00,50.0,30.0,30.18,SSW,197,2.0,5.0,46,0.00,,,1.38,,2013-04-26 00:11:00,
2013-04-25 19:21:00,49.0,30.0,30.18,WSW,248,2.0,4.0,47,0.00,,,1.38,,2013-04-26 00:21:00,
2013-04-25 19:31:00,48.0,29.0,30.18,SW,231,1.0,5.0,47,0.00,,,1.38,,2013-04-26 00:31:00,
2013-04-25 19:41:00,48.0,29.0,30.18,SW,231,1.0,5.0,47,0.00,,,1.38,,2013-04-26 00:41:00,
2013-04-25 19:52:00,47.0,29.0,30.18,SSW,204,1.0,4.0,49,0.00,,,1.38,,2013-04-26 00:52:00,
2013-04-25 20:01:00,46.0,29.0,30.19,South,178,1.0,5.0,51,0.00,,,1.38,,2013-04-26 01:01:00,
2013-04-25 20:11:00,46.0,29.0,30.19,South,178,1.0,5.0,51,0.00,,,1.38,,2013-04-26 01:11:00,
2013-04-25 20:21:00,46.0,29.0,30.19,SSW,194,0.0,4.0,51,0.00,,,1.38,,2013-04-26 01:21:00,
2013-04-25 20:31:00,44.0,28.0,30.19,North,0,0.0,0.0,54,0.02,,,1.40,,2013-04-26 01:31:00,
2013-04-25 20:41:00,44.0,28.0,30.19,North,0,0.0,0.0,54,0.02,,,1.40,,2013-04-26 01:41:00,
2013-04-25 20:52:00,42.0,28.0,30.20,North,0,0.0,0.0,57,0.02,,,1.40,,2013-04-26 01:52:00,
2013-04-25 21:02:00,41.0,27.0,30.20,North,0,0.0,0.0,57,0.04,,,1.42,,2013-04-26 02:02:00,
2013-04-25 21:11:00,41.0,27.0,30.20,North,0,0.0,0.0,57,0.04,,,1.42,,2013-04-26 02:11:00,
2013-04-25 21:21:00,41.0,27.0,30.20,North,0,0.0,0.0,57,0.04,,,1.42,,2013-04-26 02:21:00,
2013-04-25 21:32:00,41.0,27.0,30.20,North,0,0.0,0.0,57,0.04,,,1.42,,2013-04-26 02:32:00,
2013-04-25 21:42:00,41.0,27.0,30.20,North,0,0.0,0.0,57,0.04,,,1.42,,2013-04-26 02:42:00,